Regional Weather Roundup
Issued by NWS Columbia, SC

Home | Current Version | Previous Version | Text Only | Print | Product List | Glossary On
Versions: 1 2 3 4 5 6 7 8 9 10 11 12 13 14 15 16 17 18 19 20 21 22 23 24 25 26 27 28 29 30 31 32 33 34 35 36 37 38 39 40 41 42 43 44 45 46 47 48 49 50
000
ASUS42 KCAE 221210
RWRCAE
REGIONAL WEATHER ROUNDUP
NATIONAL WEATHER SERVICE COLUMBIA SC
700 AM EST MON JAN 22 2018

NOTE: "FAIR" INDICATES FEW OR NO CLOUDS BELOW 12,000 FEET WITH NO
SIGNIFICANT WEATHER AND/OR OBSTRUCTIONS TO VISIBILITY.

NOT ALL STATIONS ARE QUALITY CONTROLLED BY THE NATIONAL
WEATHER SERVICE. USE DATA WITH CAUTION...ESPECIALLY
DEWPOINT OBSERVATIONS.

SCZ001>056-GAZ040-063>065-077-221300-
...UPSTATE SOUTH CAROLINA...

CITY           SKY/WX    TMP DP  RH WIND       PRES   REMARKS
ANDERSON       FAIR      42  40  92 CALM      30.16R
6HR MIN TEMP:  41; 6HR MAX TEMP:  52;

LIBERTY        FAIR      37  37 100 CALM      30.16R
6HR MIN TEMP:  36; 6HR MAX TEMP:  40;

SPARTANBURG    FAIR      37  36  93 CALM      30.16F
CLEMSON        FAIR      46  46 100 CALM      30.17R
6HR MIN TEMP:  44; 6HR MAX TEMP:  50;

GREENVILLE     FAIR      48  40  73 CALM      30.17R
6HR MIN TEMP:  46; 6HR MAX TEMP:  52;

GREENWOOD      FAIR      37  37 100 CALM      30.17S
6HR MIN TEMP:  37; 6HR MAX TEMP:  41;

GREER          FAIR      43  40  89 CALM      30.17S
6HR MIN TEMP:  41; 6HR MAX TEMP:  49;

ROCK HILL      FAIR      36  34  92 N3        30.18S
6HR MIN TEMP:  35; 6HR MAX TEMP:  46;

CHESTER        FAIR      37  37 100 NE3       30.18F
LAURENS        FAIR      39  37  93 E3        30.16F


...CENTRAL SOUTH CAROLINA...

CITY           SKY/WX    TMP DP  RH WIND       PRES   REMARKS
COLUMBIA APT   FAIR      38  37  97 CALM      30.18S
6HR MIN TEMP:  38; 6HR MAX TEMP:  43;

COLUMBIA OWENS FAIR      40  38  93 CALM      30.19S
6HR MIN TEMP:  39; 6HR MAX TEMP:  44;

MCENTIRE ANGB  CLOUDY    37  36  99 CALM      30.18S
6HR MIN TEMP:  36; 6HR MAX TEMP:  41;

ORANGEBURG     FAIR      38  36  92 CALM      30.18R
6HR MIN TEMP:  38; 6HR MAX TEMP:  42;

SUMTER SHAW    FAIR      38  36  92 CALM      30.17R
6HR MIN TEMP:  36; 6HR MAX TEMP:  41;

NEWBERRY       FAIR      41  41 100 SE5       30.19S
AIKEN          FAIR      37  37 100 NE3       30.18F
BARNWELL         N/A     39  39 100 CALM      30.17S
MANNING        FAIR      36  34  93 MISG      30.20R
CAMDEN         FAIR      37  34  87 CALM      30.19S
LANCASTER      FAIR      36  36 100 CALM      30.19R
WINNSBORO      FAIR      45  39  81 SE3       30.17R


...EASTERN AND COASTAL SOUTH CAROLINA...

CITY           SKY/WX    TMP DP  RH WIND       PRES   REMARKS
MYRTLE BEACH   FAIR      40  37  89 CALM      30.21S
6HR MIN TEMP:  37; 6HR MAX TEMP:  41;

N MYRTLE BCH   FAIR      37  36  96 NE5       30.19F WCI  33
6HR MIN TEMP:  36; 6HR MAX TEMP:  39;

CONWAY         FAIR      34  34 100 CALM      30.21S FOG
MARION         FAIR      36  34  93 CALM      30.21R
HARTSVILLE     FAIR      36  36 100 CALM      30.19S
FLORENCE       FAIR      36  35  96 CALM      30.21R
6HR MIN TEMP:  36; 6HR MAX TEMP:  43;

DARLINGTON     FAIR      36  35  96 CALM      30.21R
6HR MIN TEMP:  35; 6HR MAX TEMP:  41;

CHARLESTON APT MOCLDY    43  41  93 NE3       30.19S FOG
6HR MIN TEMP:  40; 6HR MAX TEMP:  44;

MOUNT PLEASANT FAIR      39  39 100 CALM      30.20R FOG
WALTERBORO     FAIR      36  36 100 CALM      30.19R
BEAUFORT       FAIR      44  43  96 CALM      30.18
6HR MIN TEMP:  39; 6HR MAX TEMP:  45;



...EASTERN GEORGIA...

CITY           SKY/WX    TMP DP  RH WIND       PRES   REMARKS
AUGUSTA BUSH F FAIR      37  36  96 CALM      30.15F
6HR MIN TEMP:  36; 6HR MAX TEMP:  41;

AUGUSTA DANIEL FAIR      48  40  73 CALM      30.15F
6HR MIN TEMP:  48; 6HR MAX TEMP:  53;

THOMSON        FAIR      39  38  96 CALM      30.21R
6HR MIN TEMP:  38; 6HR MAX TEMP:  41;

WASHINGTON     FAIR      41  39  93 CALM      30.16R
CLAXTON        FAIR      41  40  96 CALM      30.17R
6HR MIN TEMP:  40; 6HR MAX TEMP:  42;

SYLVANIA       FAIR      42  41  98 CALM      30.17S
6HR MIN TEMP:  40; 6HR MAX TEMP:  45;

STATESBORO     MOCLDY    43  40  88 CALM      30.16R
6HR MIN TEMP:  40; 6HR MAX TEMP:  43;

SAVANNAH       MOCLDY    43  41  93 N3        30.18R
6HR MIN TEMP:  42; 6HR MAX TEMP:  45;



...SOUTHERN NORTH CAROLINA...

CITY           SKY/WX    TMP DP  RH WIND       PRES   REMARKS
CHARLOTTE      MOCLDY    41  39  93 CALM      30.19R
6HR MIN TEMP:  39; 6HR MAX TEMP:  50;

MONROE         FAIR      42  38  85 CALM      30.18R
6HR MIN TEMP:  38; 6HR MAX TEMP:  47;

WADESBORO      FAIR      32  31  96 CALM      30.20S
6HR MIN TEMP:  32; 6HR MAX TEMP:  38;

ROCKINGHAM     FAIR      39  38  99 CALM      30.20R
6HR MIN TEMP:  38; 6HR MAX TEMP:  49;

RUTHERFORDTON  FAIR      38  38 100 CALM      30.17S
6HR MIN TEMP:  37; 6HR MAX TEMP:  45;

ASHEVILLE      FAIR      35  33  92 CALM      30.17S
6HR MIN TEMP:  34; 6HR MAX TEMP:  37;


$$



USA.gov is the U.S. government's official web portal to all federal, state and local government web resources and services.